DMSP 5D-2 F13 DEB, 40560

Orbit data source: Space-Track

DMSP 5D-2 F13 DEB, 40560 is space debris in SSO originally from a launch on Fri, 24 Mar 1995 UTC launched from the Air Force Western Test Range (AFWTR). Debris objects in space refer to the collection of defunct objects orbiting the Earth. Examples of debris include non-operational satellites, rocket bodies, and fragments generated from explosions, collisions, or faulty payload assembly.

Loading next visibility...
Identifier
40560, 1995-015DT
Orbit
SSO
Country
Flag of USUS
Related business
Manufacturer
Unknown
Mission
Spacecraft
Bus & Motor
Unknown
Mass
Unknown
Launch date (UTC)
1995-03-24 (31 years ago)
Launch vehicle
Unknown
Launch site
Air Force Western Test Range (AFWTR)
Object type
Payload
Rocket body
Debris
Shape & HBR
Unknown shape, 0.1 m
Radar Cross Section
Medium (>0.1 m² and <1 m²)

Expand to show TLE details & history
Last TLE update: 18 hours ago

TLE from 18 hours ago
0 DMSP 5D-2 F13 DEB
1 40560U 95015DT  26236.39714380  .00003563  00000-0  10167-2 0  9993
2 40560  98.6011 281.3350 0010284  26.2423 333.9288 14.45778248593281
Epoch: 2026-08-24T09:31Z
TLE epoch observation values (Epoch: 2026-08-24T09:31:53.224Z)
Latitude
0.00007°
Longitude
165.68379°
Altitude
735.849 km
Speed
7.491 km/s
True Right ascension
18h 45m 20s
True Declination
0° 00' 00"
Sunlit
Object was in full shadow at epoch
Visualization orbit readout
Latitude
Unknown
Longitude
Unknown
Altitude
Unknown
Speed
Unknown
Apparent Right ascension
Unknown
Apparent Declination
Unknown
Sunlit
N/A
Visualization observer readout
Local Sidereal Time
18:19:46
Azimuth
Unknown
Elevation
Unknown
Doppler factor
Unknown
Orbital elements
Apogee altitude
743.907 km
Perigee altitude
729.273 km
Semi-major axis
7,114.727 km
Eccentricity
0.00103
Inclination
98.6011°
RAAN
281.335°
Arg. of periapsis
26.2423°
True anomaly
333.87695°
Mean anomaly
333.9288°
Eccentric anomaly
333.90288°
Mean motion
3.61664 °/min
Orbital period
99.54 mins
BSTAR
0.0010167
Loading maneuver chart data...
Computing Atmospheric mass density...

Documentation

Showing up to 5 results
|